FW2116 Weather Reports


Display with metric or nautical units.
time (UTC)temp
F
wind
direction
speed
MPH
gust
MPH
rain 1hr
in
rain 24hr
in
rain mn
in
humidity
%
barometer
mb
20190216160108 37 101 0.0 1.0 0.00 0.49 0.09 94 1011.5
20190216154626 37 149 0.0 0.0 0.00 0.49 0.09 94 1011.2
20190216153106 37 149 0.0 0.0 0.00 0.49 0.09 94 1011.0
20190216151645 37 149 0.0 0.0 0.00 0.49 0.09 94 1010.8
20190216150050 37 149 0.0 0.0 0.00 0.49 0.09 94 1010.6
20190216144541 37 149 0.0 1.0 0.00 0.49 0.09 94 1010.3
20190216143045 36 139 0.0 1.0 0.01 0.49 0.09 94 1010.1
20190216141525 36 134 0.0 1.0 0.02 0.49 0.09 94 1010.0
20190216140023 36 134 0.0 1.0 0.02 0.49 0.09 94 1009.7
20190216134537 36 150 0.0 0.0 0.02 0.49 0.09 94 1009.5
20190216133039 36 150 0.0 1.0 0.01 0.48 0.08 94 1009.3
20190216131521 37 113 0.0 1.0 0.01 0.47 0.07 94 1009.1
20190216130012 37 79 0.0 1.0 0.02 0.48 0.07 94 1009.0
20190216124512 37 152 0.0 1.0 0.03 0.48 0.07 94 1008.8
20190216123012 37 113 0.0 1.0 0.04 0.48 0.07 94 1008.7
20190216121506 37 113 0.0 1.0 0.03 0.47 0.06 94 1008.5
20190216120214 37 94 0.0 1.0 0.02 0.46 0.05 94 1008.3
20190216114717 38 98 0.0 1.0 0.02 0.45 0.04 94 1008.2
20190216113225 38 136 0.0 1.0 0.01 0.44 0.03 94 1008.2
20190216111718 38 136 0.0 1.0 0.01 0.44 0.03 94 1008.0
20190216110151 38 136 0.0 1.0 0.01 0.45 0.03 94 1007.9
20190216104743 38 131 0.0 1.0 0.01 0.44 0.02 94 1007.9
20190216103128 38 145 1.0 3.0 0.01 0.44 0.02 94 1007.9
20190216101625 38 163 0.0 0.0 0.01 0.44 0.02 94 1007.8
20190216100216 38 102 0.0 2.0 0.01 0.44 0.02 94 1007.6
20190216094629 38 129 0.0 1.0 0.01 0.43 0.01 94 1007.5
20190216093345 38 122 0.0 1.0 0.01 0.43 0.01 94 1007.6
20190216091659 38 96 0.0 1.0 0.01 0.43 0.01 93 1007.7
20190216090151 38 110 0.0 1.0 0.00 0.42 0.00 93 1007.7
20190216084614 38 141 0.0 2.0 0.01 0.42 0.00 93 1007.6
20190216083141 38 105 0.0 2.0 0.01 0.42 0.00 93 1007.6
20190216081628 38 162 0.0 2.0 0.03 0.42 0.00 93 1007.5
20190216080121 38 138 0.0 1.0 0.05 0.45 0.42 93 1007.4
20190216074620 38 100 0.0 0.0 0.05 0.44 0.41 93 1007.2
20190216073127 38 100 0.0 1.0 0.06 0.44 0.41 92 1007.2
20190216071631 38 154 1.0 3.0 0.04 0.41 0.38 92 1007.3
20190216070140 38 123 1.0 3.0 0.04 0.40 0.37 92 1007.3
20190216064627 38 104 0.0 2.0 0.04 0.39 0.36 93 1007.0
20190216063111 38 110 0.0 4.0 0.04 0.38 0.35 93 1007.0
20190216061615 38 155 0.0 1.0 0.06 0.37 0.34 93 1007.0
20190216060109 38 110 0.0 1.0 0.07 0.36 0.33 92 1006.9
20190216054547 39 153 0.0 2.0 0.07 0.35 0.32 93 1007.0
20190216053117 39 141 0.0 1.0 0.07 0.34 0.31 93 1007.1
20190216051706 39 158 1.0 7.0 0.04 0.31 0.28 93 1006.9
20190216050107 39 140 0.0 1.0 0.02 0.28 0.26 93 1006.7
20190216044608 39 167 0.0 0.0 0.02 0.28 0.25 93 1006.7
20190216043055 39 167 0.0 0.0 0.02 0.27 0.24 92 1006.5
20190216041623 39 186 0.0 1.0 0.03 0.27 0.24 92 1006.5
20190216040052 40 96 0.0 2.0 0.03 0.28 0.24 91 1006.7
20190216034608 39 60 0.0 2.0 0.02 0.27 0.23 92 1006.6
20190216033113 39 112 0.0 1.0 0.03 0.26 0.22 92 1006.4
20190216031546 40 146 0.0 1.0 0.03 0.25 0.21 92 1006.4
20190216030045 40 139 0.0 1.0 0.05 0.25 0.21 92 1006.3
20190216024534 40 167 0.0 2.0 0.05 0.25 0.21 91 1006.4
20190216023054 40 105 0.0 1.0 0.04 0.23 0.19 91 1006.3
20190216021552 40 114 0.0 2.0 0.03 0.22 0.18 89 1006.2
20190216020042 41 158 0.0 2.0 0.01 0.20 0.16 88 1006.3
20190216014551 41 76 0.0 1.0 0.01 0.20 0.16 89 1006.0
20190216013038 41 142 0.0 3.0 0.00 0.19 0.15 88 1005.9
20190216011552 41 141 0.0 1.0 0.00 0.19 0.15 89 1005.7
20190216010028 41 175 0.0 1.0 0.00 0.22 0.15 89 1005.6
20190216004552 41 153 0.0 2.0 0.01 0.22 0.15 88 1005.7
20190216003024 41 138 0.0 1.0 0.03 0.22 0.15 88 1005.8
20190216001542 41 101 0.0 1.0 0.05 0.22 0.15 89 1005.8
20190216000041 41 106 0.0 2.0 0.05 0.28 0.15 88 1006.0
20190215234528 42 93 0.0 9.0 0.04 0.27 0.14 84 1006.2
20190215233024 44 209 1.0 12.0 0.02 0.25 0.12 80 1006.4
20190215231542 46 150 0.0 1.0 0.00 0.23 0.10 79 1005.9
20190215230038 46 113 0.0 1.0 0.00 0.26 0.10 80 1005.7
20190215224517 46 89 0.0 2.0 0.00 0.26 0.10 79 1005.8
20190215223051 47 141 0.0 4.0 0.00 0.26 0.10 74 1005.8
20190215221555 46 225 0.0 3.0 0.00 0.26 0.10 80 1005.8
20190215220015 46 165 1.0 3.0 0.00 0.30 0.10 79 1006.0
20190215214528 46 122 0.0 2.0 0.00 0.30 0.10 81 1005.8
20190215213027 45 95 0.0 2.0 0.00 0.30 0.10 84 1006.0
20190215211513 44 110 0.0 1.0 0.00 0.30 0.10 85 1005.9
20190215210016 44 146 0.0 2.0 0.00 0.31 0.10 85 1006.1
20190215204506 44 80 0.0 1.0 0.00 0.31 0.10 86 1006.2
20190215203334 44 126 0.0 2.0 0.00 0.31 0.10 86 1006.3
20190215201637 43 93 0.0 2.0 0.01 0.31 0.10 88 1006.3
20190215200132 43 155 0.0 1.0 0.03 0.43 0.10 89 1006.3
20190215194659 42 117 0.0 2.0 0.03 0.43 0.10 92 1006.5
20190215193201 40 89 0.0 2.0 0.04 0.43 0.10 91 1006.4
20190215191638 40 164 1.0 13.0 0.05 0.42 0.09 89 1006.6
20190215190132 40 168 3.0 6.0 0.05 0.48 0.07 90 1006.3
20190215184646 40 106 0.0 1.0 0.05 0.48 0.07 90 1006.0
20190215183204 40 172 0.0 3.0 0.04 0.47 0.06 89 1005.9
20190215181650 40 130 0.0 2.0 0.02 0.45 0.04 88 1005.7
20190215180137 40 210 0.0 2.0 0.00 0.43 0.02 86 1005.6
20190215174605 40 136 0.0 3.0 0.00 0.43 0.02 86 1005.4
20190215173049 39 169 0.0 2.0 0.00 0.43 0.02 87 1005.2
20190215171610 39 167 1.0 5.0 0.00 0.43 0.02 88 1005.0
20190215170113 38 164 0.0 3.0 0.00 0.43 0.02 88 1004.7
20190215164618 37 149 0.0 3.0 0.00 0.43 0.02 89 1004.6
20190215163051 37 162 0.0 2.0 0.00 0.43 0.02 89 1004.4
20190215161539 37 154 1.0 4.0 0.00 0.43 0.02 88 1004.0